Time,TemperatureF,DewpointF,PressureIn,WindDirection,WindDirectionDegrees,WindSpeedMPH,WindSpeedGustMPH,Humidity,HourlyPrecipIn,Conditions,Clouds,dailyrainin,SoftwareType,DateUTC
2013-05-11 00:02:00,48.8,36.0,30.03,SSW,203,0.0,1.3,61,0.00,,,0.00,WUHU216HW,2013-05-11 06:02:00,
2013-05-11 00:07:00,48.6,35.8,30.03,SW,225,0.0,1.3,61,0.00,,,0.00,WUHU216HW,2013-05-11 06:07:00,
2013-05-11 00:12:00,48.6,35.8,30.03,SW,225,0.0,0.0,61,0.00,,,0.00,WUHU216HW,2013-05-11 06:12:00,
2013-05-11 00:17:00,48.4,35.6,30.03,SW,225,0.0,0.0,61,0.00,,,0.00,WUHU216HW,2013-05-11 06:17:00,
2013-05-11 00:22:00,48.4,35.6,30.03,SSW,203,1.8,1.8,61,0.00,,,0.00,WUHU216HW,2013-05-11 06:22:00,
2013-05-11 00:27:00,48.2,35.8,30.03,SW,225,0.7,1.8,62,0.00,,,0.00,WUHU216HW,2013-05-11 06:27:00,
2013-05-11 00:32:00,48.2,35.8,30.03,SSW,203,0.7,1.1,62,0.00,,,0.00,WUHU216HW,2013-05-11 06:32:00,
2013-05-11 00:37:00,48.1,35.3,30.04,SW,225,0.0,1.1,61,0.00,,,0.00,WUHU216HW,2013-05-11 06:37:00,
2013-05-11 00:42:00,48.1,35.3,30.03,SSW,203,0.0,0.4,61,0.00,,,0.00,WUHU216HW,2013-05-11 06:42:00,
2013-05-11 00:47:00,48.1,35.6,30.04,SSW,203,0.0,0.4,62,0.00,,,0.00,WUHU216HW,2013-05-11 06:47:00,
2013-05-11 00:52:00,47.9,35.5,30.04,SW,225,0.0,0.0,62,0.00,,,0.00,WUHU216HW,2013-05-11 06:52:00,
2013-05-11 00:57:00,47.9,35.5,30.04,SSW,203,0.4,1.1,62,0.00,,,0.00,WUHU216HW,2013-05-11 06:57:00,
2013-05-11 01:02:00,47.7,35.4,30.04,SSW,203,0.0,1.1,62,0.00,,,0.00,WUHU216HW,2013-05-11 07:02:00,
2013-05-11 01:07:00,47.5,35.2,30.04,SSW,203,0.7,0.9,62,0.00,,,0.00,WUHU216HW,2013-05-11 07:07:00,
2013-05-11 01:12:00,47.5,35.6,30.04,SSW,203,0.4,0.9,63,0.00,,,0.00,WUHU216HW,2013-05-11 07:12:00,
2013-05-11 01:17:00,47.3,35.0,30.04,SW,225,0.4,0.4,62,0.00,,,0.00,WUHU216HW,2013-05-11 07:17:00,
2013-05-11 01:22:00,47.2,35.2,30.04,SW,225,0.0,0.4,63,0.00,,,0.00,WUHU216HW,2013-05-11 07:22:00,
2013-05-11 01:27:00,47.2,35.2,30.04,SSW,203,0.4,0.4,63,0.00,,,0.00,WUHU216HW,2013-05-11 07:27:00,
2013-05-11 01:32:00,47.2,35.2,30.04,SSW,203,0.4,0.7,63,0.00,,,0.00,WUHU216HW,2013-05-11 07:32:00,
2013-05-11 01:37:00,47.2,34.8,30.04,SW,225,0.0,0.7,62,0.00,,,0.00,WUHU216HW,2013-05-11 07:37:00,
2013-05-11 01:42:00,47.2,35.2,30.04,SSW,203,0.4,0.7,63,0.00,,,0.00,WUHU216HW,2013-05-11 07:42:00,
2013-05-11 01:47:00,47.0,35.0,30.03,SW,225,0.4,0.9,63,0.00,,,0.00,WUHU216HW,2013-05-11 07:47:00,
2013-05-11 01:52:00,46.8,34.5,30.03,SW,225,0.2,0.9,62,0.00,,,0.00,WUHU216HW,2013-05-11 07:52:00,
2013-05-11 01:57:00,46.8,34.8,30.03,SW,225,0.0,0.7,63,0.00,,,0.00,WUHU216HW,2013-05-11 07:57:00,
2013-05-11 02:02:00,46.8,34.5,30.03,SW,225,0.0,0.0,62,0.00,,,0.00,WUHU216HW,2013-05-11 08:02:00,
2013-05-11 02:07:00,46.6,34.7,30.03,SSW,203,1.3,1.3,63,0.00,,,0.00,WUHU216HW,2013-05-11 08:07:00,
2013-05-11 02:12:00,46.4,34.9,30.03,SW,225,0.7,1.3,64,0.00,,,0.00,WUHU216HW,2013-05-11 08:12:00,
2013-05-11 02:17:00,46.4,34.9,30.03,SSW,203,0.0,1.1,64,0.00,,,0.00,WUHU216HW,2013-05-11 08:17:00,
2013-05-11 02:22:00,46.4,34.9,30.03,SSW,203,0.0,0.9,64,0.00,,,0.00,WUHU216HW,2013-05-11 08:22:00,
2013-05-11 02:27:00,46.3,34.8,30.03,SSW,203,0.0,0.0,64,0.00,,,0.00,WUHU216HW,2013-05-11 08:27:00,
2013-05-11 02:32:00,46.1,34.9,30.03,SSW,203,0.0,0.0,65,0.00,,,0.00,WUHU216HW,2013-05-11 08:32:00,
2013-05-11 02:37:00,46.1,34.9,30.03,SW,225,0.0,0.0,65,0.00,,,0.00,WUHU216HW,2013-05-11 08:37:00,
2013-05-11 02:42:00,46.1,34.9,30.02,SSW,203,0.4,1.1,65,0.00,,,0.00,WUHU216HW,2013-05-11 08:42:00,
2013-05-11 02:47:00,45.9,34.7,30.02,SSW,203,0.0,1.1,65,0.00,,,0.00,WUHU216HW,2013-05-11 08:47:00,
2013-05-11 02:52:00,45.9,34.7,30.02,SW,225,0.0,0.9,65,0.00,,,0.00,WUHU216HW,2013-05-11 08:52:00,
2013-05-11 02:57:00,45.9,35.2,30.02,SW,225,0.0,0.7,66,0.00,,,0.00,WUHU216HW,2013-05-11 08:57:00,
2013-05-11 03:02:00,45.9,34.7,30.02,SW,225,0.0,0.0,65,0.00,,,0.00,WUHU216HW,2013-05-11 09:02:00,
2013-05-11 03:07:00,45.9,34.7,30.02,SW,225,0.7,0.9,65,0.00,,,0.00,WUHU216HW,2013-05-11 09:07:00,
2013-05-11 03:12:00,46.1,34.9,30.02,SW,225,0.0,0.9,65,0.00,,,0.00,WUHU216HW,2013-05-11 09:12:00,
2013-05-11 03:17:00,46.1,34.6,30.02,WSW,248,0.0,0.4,64,0.00,,,0.00,WUHU216HW,2013-05-11 09:17:00,
2013-05-11 03:22:00,46.1,34.9,30.02,SSW,203,0.0,0.7,65,0.00,,,0.00,WUHU216HW,2013-05-11 09:22:00,
2013-05-11 03:27:00,46.1,34.6,30.02,SSW,203,0.0,0.7,64,0.00,,,0.00,WUHU216HW,2013-05-11 09:27:00,
2013-05-11 03:32:00,46.1,34.6,30.02,SW,225,0.0,0.0,64,0.00,,,0.00,WUHU216HW,2013-05-11 09:32:00,
2013-05-11 03:37:00,45.9,34.4,30.02,SW,225,0.0,0.0,64,0.00,,,0.00,WUHU216HW,2013-05-11 09:37:00,
2013-05-11 03:42:00,45.7,34.2,30.02,SW,225,0.0,0.0,64,0.00,,,0.00,WUHU216HW,2013-05-11 09:42:00,
2013-05-11 03:47:00,45.5,34.5,30.02,SSW,203,0.0,0.0,65,0.00,,,0.00,WUHU216HW,2013-05-11 09:47:00,
2013-05-11 03:52:00,45.4,34.3,30.02,SSW,203,0.0,0.0,65,0.00,,,0.00,WUHU216HW,2013-05-11 09:52:00,
2013-05-11 03:57:00,45.4,34.3,30.02,SSW,203,0.0,0.0,65,0.00,,,0.00,WUHU216HW,2013-05-11 09:57:00,
2013-05-11 04:02:00,45.0,33.9,30.02,SSW,203,0.0,0.0,65,0.00,,,0.00,WUHU216HW,2013-05-11 10:02:00,
2013-05-11 04:07:00,45.0,33.9,30.03,SW,225,0.0,1.3,65,0.00,,,0.00,WUHU216HW,2013-05-11 10:07:00,
2013-05-11 04:12:00,45.0,34.3,30.02,SSW,203,0.7,1.3,66,0.00,,,0.00,WUHU216HW,2013-05-11 10:12:00,
2013-05-11 04:17:00,45.0,34.3,30.03,WSW,248,0.0,0.7,66,0.00,,,0.00,WUHU216HW,2013-05-11 10:17:00,
2013-05-11 04:22:00,45.2,34.5,30.03,SW,225,0.0,0.2,66,0.00,,,0.00,WUHU216HW,2013-05-11 10:22:00,
2013-05-11 04:27:00,45.0,34.7,30.03,SSW,203,0.9,0.9,67,0.00,,,0.00,WUHU216HW,2013-05-11 10:27:00,
2013-05-11 04:32:00,45.0,34.3,30.03,SW,225,0.0,0.9,66,0.00,,,0.00,WUHU216HW,2013-05-11 10:32:00,
2013-05-11 04:37:00,45.0,34.3,30.02,SW,225,0.4,2.0,66,0.00,,,0.00,WUHU216HW,2013-05-11 10:37:00,
2013-05-11 04:42:00,44.8,34.5,30.02,SSW,203,0.4,2.0,67,0.00,,,0.00,WUHU216HW,2013-05-11 10:42:00,
2013-05-11 04:47:00,44.8,34.5,30.02,SSW,203,0.0,1.3,67,0.00,,,0.00,WUHU216HW,2013-05-11 10:47:00,
2013-05-11 04:52:00,44.8,34.5,30.02,SW,225,0.0,1.3,67,0.00,,,0.00,WUHU216HW,2013-05-11 10:52:00,
2013-05-11 04:57:00,44.8,34.5,30.02,SW,225,0.0,0.0,67,0.00,,,0.00,WUHU216HW,2013-05-11 10:57:00,
2013-05-11 05:02:00,44.8,34.5,30.02,SW,225,0.0,0.0,67,0.00,,,0.00,WUHU216HW,2013-05-11 11:02:00,
2013-05-11 05:07:00,44.8,34.5,30.02,SW,225,0.0,0.0,67,0.00,,,0.00,WUHU216HW,2013-05-11 11:07:00,
2013-05-11 05:12:00,44.6,34.3,30.02,SSW,203,0.2,0.7,67,0.00,,,0.00,WUHU216HW,2013-05-11 11:12:00,
2013-05-11 05:17:00,44.6,34.3,30.02,SSW,203,0.0,1.1,67,0.00,,,0.00,WUHU216HW,2013-05-11 11:17:00,
2013-05-11 05:22:00,44.6,34.8,30.02,SW,225,0.0,1.1,68,0.00,,,0.00,WUHU216HW,2013-05-11 11:22:00,
2013-05-11 05:27:00,44.6,34.8,30.02,SW,225,0.4,0.4,68,0.00,,,0.00,WUHU216HW,2013-05-11 11:27:00,
2013-05-11 05:32:00,44.5,34.6,30.02,SW,225,0.0,0.9,68,0.00,,,0.00,WUHU216HW,2013-05-11 11:32:00,
2013-05-11 05:37:00,44.5,34.6,30.02,SSW,203,0.2,0.9,68,0.00,,,0.00,WUHU216HW,2013-05-11 11:37:00,
2013-05-11 05:42:00,44.3,34.4,30.01,SW,225,0.0,0.4,68,0.00,,,0.00,WUHU216HW,2013-05-11 11:42:00,
2013-05-11 05:47:00,44.5,34.6,30.01,SW,225,0.0,0.4,68,0.00,,,0.00,WUHU216HW,2013-05-11 11:47:00,
2013-05-11 05:52:00,44.3,34.4,30.01,SW,225,0.0,0.0,68,0.00,,,0.00,WUHU216HW,2013-05-11 11:52:00,
2013-05-11 05:57:00,44.3,34.4,30.01,SW,225,0.0,0.0,68,0.00,,,0.00,WUHU216HW,2013-05-11 11:57:00,
2013-05-11 06:02:00,44.3,34.4,30.01,SW,225,0.4,0.7,68,0.00,,,0.00,WUHU216HW,2013-05-11 12:02:00,
2013-05-11 06:07:00,44.3,34.4,30.01,SW,225,0.0,0.7,68,0.00,,,0.00,WUHU216HW,2013-05-11 12:07:00,
2013-05-11 06:12:00,44.3,34.4,30.01,SW,225,0.4,0.4,68,0.00,,,0.00,WUHU216HW,2013-05-11 12:12:00,
2013-05-11 06:17:00,44.3,34.4,30.01,SW,225,0.4,0.9,68,0.00,,,0.00,WUHU216HW,2013-05-11 12:17:00,
2013-05-11 06:22:00,44.5,34.6,30.00,SSW,203,0.0,1.1,68,0.00,,,0.00,WUHU216HW,2013-05-11 12:22:00,
2013-05-11 06:27:00,44.5,34.6,30.00,SSW,203,0.4,1.1,68,0.00,,,0.00,WUHU216HW,2013-05-11 12:27:00,
2013-05-11 06:32:00,44.5,34.6,30.00,SSW,203,0.4,0.4,68,0.00,,,0.00,WUHU216HW,2013-05-11 12:32:00,
2013-05-11 06:37:00,44.6,34.8,30.00,SSW,203,0.0,0.4,68,0.00,,,0.00,WUHU216HW,2013-05-11 12:37:00,
2013-05-11 06:42:00,44.6,34.8,30.00,SSW,203,0.0,0.4,68,0.00,,,0.00,WUHU216HW,2013-05-11 12:42:00,
2013-05-11 06:47:00,44.8,34.9,30.00,SSW,203,0.0,0.0,68,0.00,,,0.00,WUHU216HW,2013-05-11 12:47:00,
2013-05-11 06:52:00,45.0,35.1,30.00,SW,225,0.0,0.0,68,0.00,,,0.00,WUHU216HW,2013-05-11 12:52:00,
2013-05-11 06:57:00,45.4,35.4,30.00,SSW,203,0.0,0.0,68,0.00,,,0.00,WUHU216HW,2013-05-11 12:57:00,
2013-05-11 07:02:00,45.7,35.7,30.00,SSW,203,0.0,0.4,68,0.00,,,0.00,WUHU216HW,2013-05-11 13:02:00,
2013-05-11 07:07:00,45.9,35.9,30.00,SSW,203,0.0,0.4,68,0.00,,,0.00,WUHU216HW,2013-05-11 13:07:00,
2013-05-11 07:12:00,46.1,36.1,30.00,SSW,203,0.0,0.0,68,0.00,,,0.00,WUHU216HW,2013-05-11 13:12:00,
2013-05-11 07:17:00,46.4,36.5,30.00,SSW,203,0.0,0.0,68,0.00,,,0.00,WUHU216HW,2013-05-11 13:17:00,
2013-05-11 07:22:00,46.8,36.8,30.00,SSW,203,0.0,0.0,68,0.00,,,0.00,WUHU216HW,2013-05-11 13:22:00,
2013-05-11 07:27:00,47.2,36.7,30.00,SSW,203,0.0,0.0,67,0.00,,,0.00,WUHU216HW,2013-05-11 13:27:00,
2013-05-11 07:32:00,47.3,36.9,30.00,SSW,203,0.0,0.0,67,0.00,,,0.00,WUHU216HW,2013-05-11 13:32:00,
2013-05-11 07:37:00,47.3,37.3,30.00,SSW,203,0.0,0.0,68,0.00,,,0.00,WUHU216HW,2013-05-11 13:37:00,
2013-05-11 07:42:00,47.5,37.1,30.00,SSW,203,0.0,0.0,67,0.00,,,0.00,WUHU216HW,2013-05-11 13:42:00,
2013-05-11 07:47:00,47.7,37.6,30.00,SSW,203,0.0,0.0,68,0.00,,,0.00,WUHU216HW,2013-05-11 13:47:00,
2013-05-11 07:52:00,47.9,37.5,30.00,SSW,203,0.0,0.0,67,0.00,,,0.00,WUHU216HW,2013-05-11 13:52:00,
2013-05-11 07:57:00,47.9,37.5,30.00,SSW,203,0.0,0.0,67,0.00,,,0.00,WUHU216HW,2013-05-11 13:57:00,
2013-05-11 08:02:00,48.2,37.7,30.00,SSW,203,0.0,0.0,67,0.00,,,0.00,WUHU216HW,2013-05-11 14:02:00,
2013-05-11 08:07:00,48.2,37.7,30.00,SSW,203,0.0,0.0,67,0.00,,,0.00,WUHU216HW,2013-05-11 14:07:00,
2013-05-11 08:12:00,48.4,37.9,30.00,SSW,203,0.0,0.0,67,0.00,,,0.00,WUHU216HW,2013-05-11 14:12:00,
2013-05-11 08:17:00,48.8,38.3,30.00,SSW,203,0.0,0.0,67,0.00,,,0.00,WUHU216HW,2013-05-11 14:17:00,
2013-05-11 08:22:00,49.5,38.6,30.00,SSE,158,0.0,0.0,66,0.00,,,0.00,WUHU216HW,2013-05-11 14:22:00,
2013-05-11 08:27:00,50.2,38.9,30.00,North,0,0.4,1.3,65,0.00,,,0.00,WUHU216HW,2013-05-11 14:27:00,
2013-05-11 08:32:00,51.3,39.5,30.00,NE,45,0.0,1.3,64,0.00,,,0.00,WUHU216HW,2013-05-11 14:32:00,
2013-05-11 08:37:00,51.7,39.9,30.00,North,0,0.0,0.7,64,0.00,,,0.00,WUHU216HW,2013-05-11 14:37:00,
2013-05-11 08:42:00,52.0,39.8,30.00,North,0,0.0,0.0,63,0.00,,,0.00,WUHU216HW,2013-05-11 14:42:00,
2013-05-11 08:47:00,52.2,39.5,30.00,North,0,0.4,1.1,62,0.00,,,0.00,WUHU216HW,2013-05-11 14:47:00,
2013-05-11 08:52:00,52.4,39.7,30.00,NNE,23,0.4,1.1,62,0.00,,,0.00,WUHU216HW,2013-05-11 14:52:00,
2013-05-11 08:57:00,52.6,39.9,30.00,NNE,23,0.0,1.1,62,0.00,,,0.00,WUHU216HW,2013-05-11 14:57:00,
2013-05-11 09:02:00,52.7,39.6,30.00,NNE,23,0.0,0.4,61,0.00,,,0.00,WUHU216HW,2013-05-11 15:02:00,
2013-05-11 09:07:00,53.3,40.1,29.99,NNE,23,0.0,0.0,61,0.00,,,0.00,WUHU216HW,2013-05-11 15:07:00,
2013-05-11 09:12:00,53.8,40.3,29.99,NE,45,0.4,1.1,60,0.00,,,0.00,WUHU216HW,2013-05-11 15:12:00,
2013-05-11 09:17:00,54.4,40.3,30.00,NW,315,0.4,1.1,59,0.00,,,0.00,WUHU216HW,2013-05-11 15:17:00,
2013-05-11 09:22:00,54.4,39.9,30.00,SSW,203,0.4,1.3,58,0.00,,,0.00,WUHU216HW,2013-05-11 15:22:00,
2013-05-11 09:27:00,54.9,39.4,30.00,SSW,203,0.4,1.3,56,0.00,,,0.00,WUHU216HW,2013-05-11 15:27:00,
2013-05-11 09:32:00,55.6,40.1,29.99,ESE,113,1.1,1.1,56,0.00,,,0.00,WUHU216HW,2013-05-11 15:32:00,
2013-05-11 09:37:00,56.9,40.9,29.99,NNE,23,1.3,1.3,55,0.00,,,0.00,WUHU216HW,2013-05-11 15:37:00,
2013-05-11 09:42:00,57.6,41.6,29.99,NNE,23,0.7,1.3,55,0.00,,,0.00,WUHU216HW,2013-05-11 15:42:00,
2013-05-11 09:47:00,58.0,41.9,29.99,NE,45,0.7,2.5,55,0.00,,,0.00,WUHU216HW,2013-05-11 15:47:00,
2013-05-11 09:52:00,58.3,42.2,29.99,SSW,203,0.7,2.5,55,0.00,,,0.00,WUHU216HW,2013-05-11 15:52:00,
2013-05-11 09:57:00,58.7,41.6,29.99,NNE,23,2.2,2.2,53,0.00,,,0.00,WUHU216HW,2013-05-11 15:57:00,
2013-05-11 10:02:00,58.9,41.3,29.99,North,0,0.0,2.2,52,0.00,,,0.00,WUHU216HW,2013-05-11 16:02:00,
2013-05-11 10:07:00,59.9,42.3,29.99,NNE,23,3.1,3.1,52,0.00,,,0.00,WUHU216HW,2013-05-11 16:07:00,
2013-05-11 10:12:00,60.3,42.1,29.99,NNE,23,1.3,3.1,51,0.01,,,0.02,WUHU216HW,2013-05-11 16:12:00,
2013-05-11 10:17:00,61.2,43.4,29.99,ENE,68,2.0,2.0,52,0.01,,,0.02,WUHU216HW,2013-05-11 16:17:00,
2013-05-11 10:22:00,62.1,43.3,29.99,NE,45,1.6,2.0,50,0.01,,,0.02,WUHU216HW,2013-05-11 16:22:00,
2013-05-11 10:27:00,62.8,43.3,29.99,NNE,23,0.0,1.8,49,0.01,,,0.02,WUHU216HW,2013-05-11 16:27:00,
2013-05-11 10:32:00,63.9,42.0,29.99,North,0,0.4,1.8,45,0.01,,,0.02,WUHU216HW,2013-05-11 16:32:00,
2013-05-11 10:37:00,64.4,43.0,29.98,NE,45,0.0,1.8,46,0.01,,,0.02,WUHU216HW,2013-05-11 16:37:00,
2013-05-11 10:42:00,65.7,44.3,29.98,NNE,23,1.1,2.2,46,0.01,,,0.02,WUHU216HW,2013-05-11 16:42:00,
2013-05-11 10:47:00,66.6,43.9,29.98,SE,135,0.9,2.2,44,0.01,,,0.02,WUHU216HW,2013-05-11 16:47:00,
2013-05-11 10:52:00,67.5,44.7,29.98,SSW,203,1.8,2.5,44,0.01,,,0.02,WUHU216HW,2013-05-11 16:52:00,
2013-05-11 10:57:00,69.1,46.2,29.98,North,0,0.9,2.5,44,0.01,,,0.02,WUHU216HW,2013-05-11 16:57:00,
2013-05-11 11:02:00,68.6,44.6,29.98,ESE,113,0.9,1.8,42,0.01,,,0.02,WUHU216HW,2013-05-11 17:02:00,
2013-05-11 11:07:00,68.8,44.1,29.98,NE,45,1.6,1.8,41,0.00,,,0.02,WUHU216HW,2013-05-11 17:07:00,
2013-05-11 11:12:00,67.9,41.9,29.98,North,0,0.4,2.5,39,0.00,,,0.02,WUHU216HW,2013-05-11 17:12:00,
2013-05-11 11:17:00,68.8,44.6,29.98,NNE,23,2.5,2.5,42,0.00,,,0.02,WUHU216HW,2013-05-11 17:17:00,
2013-05-11 11:22:00,70.4,46.2,29.98,NE,45,1.6,2.5,42,0.00,,,0.02,WUHU216HW,2013-05-11 17:22:00,
2013-05-11 11:27:00,70.2,44.8,29.98,NNE,23,0.9,2.9,40,0.00,,,0.02,WUHU216HW,2013-05-11 17:27:00,
2013-05-11 11:32:00,71.3,45.7,29.98,NNE,23,0.4,2.9,40,0.00,,,0.02,WUHU216HW,2013-05-11 17:32:00,
2013-05-11 11:37:00,70.6,45.1,29.98,WNW,293,1.8,3.4,40,0.00,,,0.02,WUHU216HW,2013-05-11 17:37:00,
2013-05-11 11:42:00,70.2,44.8,29.98,NE,45,0.2,3.4,40,0.00,,,0.02,WUHU216HW,2013-05-11 17:42:00,
2013-05-11 11:47:00,70.6,45.1,29.98,ENE,68,3.1,3.1,40,0.00,,,0.02,WUHU216HW,2013-05-11 17:47:00,
2013-05-11 11:52:00,71.1,45.6,29.98,North,0,2.2,3.1,40,0.00,,,0.02,WUHU216HW,2013-05-11 17:52:00,
2013-05-11 11:57:00,72.2,47.2,29.98,NNE,23,0.4,2.2,41,0.00,,,0.02,WUHU216HW,2013-05-11 17:57:00,
2013-05-11 12:02:00,72.4,46.7,29.97,North,0,1.1,2.7,40,0.00,,,0.02,WUHU216HW,2013-05-11 18:02:00,
2013-05-11 12:07:00,71.5,45.2,29.97,SW,225,0.4,4.5,39,0.00,,,0.02,WUHU216HW,2013-05-11 18:07:00,
2013-05-11 12:12:00,72.4,46.0,29.97,NNE,23,0.9,4.5,39,0.00,,,0.02,WUHU216HW,2013-05-11 18:12:00,
2013-05-11 12:17:00,72.4,46.0,29.97,NE,45,1.6,2.2,39,0.00,,,0.02,WUHU216HW,2013-05-11 18:17:00,
2013-05-11 12:22:00,72.5,46.2,29.97,NE,45,0.4,2.7,39,0.00,,,0.02,WUHU216HW,2013-05-11 18:22:00,
2013-05-11 12:27:00,74.2,47.6,29.97,ESE,113,1.1,2.9,39,0.00,,,0.02,WUHU216HW,2013-05-11 18:27:00,
2013-05-11 12:32:00,76.3,48.8,29.97,ENE,68,2.0,2.9,38,0.00,,,0.02,WUHU216HW,2013-05-11 18:32:00,
2013-05-11 12:37:00,76.3,48.8,29.97,ENE,68,0.9,2.2,38,0.00,,,0.02,WUHU216HW,2013-05-11 18:37:00,
2013-05-11 12:42:00,77.2,47.4,29.96,NNE,23,1.8,2.5,35,0.00,,,0.02,WUHU216HW,2013-05-11 18:42:00,
2013-05-11 12:47:00,76.5,46.7,29.96,NNE,23,1.3,2.5,35,0.00,,,0.02,WUHU216HW,2013-05-11 18:47:00,
2013-05-11 12:52:00,76.5,48.2,29.96,NNE,23,2.5,2.5,37,0.00,,,0.02,WUHU216HW,2013-05-11 18:52:00,
2013-05-11 12:57:00,76.1,46.4,29.95,North,0,1.6,2.5,35,0.00,,,0.02,WUHU216HW,2013-05-11 18:57:00,
2013-05-11 13:02:00,74.9,46.7,29.96,North,0,0.9,2.7,37,0.00,,,0.02,WUHU216HW,2013-05-11 19:02:00,
2013-05-11 13:07:00,76.3,48.8,29.95,NE,45,0.4,2.7,38,0.00,,,0.02,WUHU216HW,2013-05-11 19:07:00,
2013-05-11 13:12:00,77.4,47.4,29.95,SW,225,1.1,2.7,35,0.00,,,0.02,WUHU216HW,2013-05-11 19:12:00,
2013-05-11 13:17:00,77.8,49.3,29.95,NNE,23,1.8,2.7,37,0.00,,,0.02,WUHU216HW,2013-05-11 19:17:00,
2013-05-11 13:22:00,77.4,46.7,29.95,NNW,338,0.7,2.5,34,0.00,,,0.02,WUHU216HW,2013-05-11 19:22:00,
2013-05-11 13:27:00,77.0,47.2,29.95,NE,45,1.3,2.5,35,0.00,,,0.02,WUHU216HW,2013-05-11 19:27:00,
2013-05-11 13:32:00,76.3,48.1,29.95,NNE,23,3.1,3.1,37,0.00,,,0.02,WUHU216HW,2013-05-11 19:32:00,
2013-05-11 13:37:00,76.7,48.3,29.95,NNW,338,0.9,3.1,37,0.00,,,0.02,WUHU216HW,2013-05-11 19:37:00,
2013-05-11 13:42:00,76.7,46.8,29.95,NE,45,1.8,2.5,35,0.00,,,0.02,WUHU216HW,2013-05-11 19:42:00,
2013-05-11 13:47:00,75.2,45.5,29.94,SE,135,0.7,3.1,35,0.00,,,0.02,WUHU216HW,2013-05-11 19:47:00,
2013-05-11 13:52:00,74.5,47.2,29.95,NNE,23,1.1,3.1,38,0.00,,,0.02,WUHU216HW,2013-05-11 19:52:00,
2013-05-11 13:57:00,73.4,46.2,29.95,ENE,68,0.0,2.2,38,0.00,,,0.02,WUHU216HW,2013-05-11 19:57:00,
2013-05-11 14:02:00,72.4,46.0,29.95,NNE,23,0.9,1.8,39,0.00,,,0.02,WUHU216HW,2013-05-11 20:02:00,
2013-05-11 14:07:00,72.4,46.7,29.95,NE,45,1.8,1.8,40,0.00,,,0.02,WUHU216HW,2013-05-11 20:07:00,
2013-05-11 14:12:00,73.8,48.1,29.95,East,90,1.1,4.5,40,0.00,,,0.02,WUHU216HW,2013-05-11 20:12:00,
2013-05-11 14:17:00,74.7,46.5,29.94,NNW,338,1.1,4.5,37,0.00,,,0.02,WUHU216HW,2013-05-11 20:17:00,
2013-05-11 14:22:00,72.7,45.5,29.94,SSW,203,2.7,2.7,38,0.00,,,0.02,WUHU216HW,2013-05-11 20:22:00,
2013-05-11 14:27:00,71.8,45.6,29.94,SW,225,0.4,2.7,39,0.00,,,0.02,WUHU216HW,2013-05-11 20:27:00,
2013-05-11 14:32:00,71.1,46.2,29.94,NNE,23,0.4,2.0,41,0.00,,,0.02,WUHU216HW,2013-05-11 20:32:00,
2013-05-11 14:37:00,71.1,46.8,29.93,NNE,23,1.3,1.3,42,0.00,,,0.02,WUHU216HW,2013-05-11 20:37:00,
2013-05-11 14:42:00,72.0,47.6,29.93,NE,45,1.8,1.8,42,0.00,,,0.02,WUHU216HW,2013-05-11 20:42:00,
2013-05-11 14:47:00,73.4,48.3,29.93,NNE,23,2.2,3.6,41,0.00,,,0.02,WUHU216HW,2013-05-11 20:47:00,
2013-05-11 14:52:00,74.0,47.4,29.93,NNE,23,2.2,3.6,39,0.00,,,0.02,WUHU216HW,2013-05-11 20:52:00,
2013-05-11 14:57:00,73.4,47.0,29.93,North,0,1.8,3.6,39,0.00,,,0.02,WUHU216HW,2013-05-11 20:57:00,
2013-05-11 15:02:00,73.8,48.1,29.92,ENE,68,1.8,3.8,40,0.00,,,0.02,WUHU216HW,2013-05-11 21:02:00,
2013-05-11 15:07:00,74.3,47.0,29.93,ENE,68,2.7,3.8,38,0.00,,,0.02,WUHU216HW,2013-05-11 21:07:00,
2013-05-11 15:12:00,75.1,43.8,29.92,ENE,68,7.8,7.8,33,0.00,,,0.02,WUHU216HW,2013-05-11 21:12:00,
2013-05-11 15:17:00,76.0,44.6,29.92,ESE,113,2.2,7.8,33,0.00,,,0.02,WUHU216HW,2013-05-11 21:17:00,
2013-05-11 15:22:00,76.7,43.0,29.92,WSW,248,2.2,8.1,30,0.00,,,0.02,WUHU216HW,2013-05-11 21:22:00,
2013-05-11 15:27:00,76.3,42.8,29.92,South,180,1.8,8.1,30,0.00,,,0.02,WUHU216HW,2013-05-11 21:27:00,
2013-05-11 15:32:00,75.4,42.7,29.92,ESE,113,1.1,6.5,31,0.00,,,0.02,WUHU216HW,2013-05-11 21:32:00,
2013-05-11 15:37:00,75.6,43.6,29.92,NE,45,0.9,6.5,32,0.00,,,0.02,WUHU216HW,2013-05-11 21:37:00,
2013-05-11 15:42:00,76.3,42.8,29.92,ENE,68,4.3,4.3,30,0.00,,,0.02,WUHU216HW,2013-05-11 21:42:00,
2013-05-11 15:47:00,76.9,41.1,29.92,SE,135,2.9,6.9,28,0.00,,,0.02,WUHU216HW,2013-05-11 21:47:00,
2013-05-11 15:52:00,77.4,43.7,29.92,SE,135,2.5,6.9,30,0.00,,,0.02,WUHU216HW,2013-05-11 21:52:00,
2013-05-11 15:57:00,78.7,44.6,29.91,NE,45,0.4,6.3,30,0.00,,,0.02,WUHU216HW,2013-05-11 21:57:00,
2013-05-11 16:02:00,79.4,42.2,29.91,ENE,68,3.6,4.0,27,0.00,,,0.02,WUHU216HW,2013-05-11 22:02:00,
2013-05-11 16:07:00,79.2,43.0,29.91,South,180,2.5,5.8,28,0.00,,,0.02,WUHU216HW,2013-05-11 22:07:00,
2013-05-11 16:12:00,78.8,43.7,29.91,SSE,158,1.8,5.8,29,0.00,,,0.02,WUHU216HW,2013-05-11 22:12:00,
2013-05-11 16:17:00,78.8,43.7,29.91,SW,225,1.8,4.0,29,0.00,,,0.02,WUHU216HW,2013-05-11 22:17:00,
2013-05-11 16:22:00,78.5,43.5,29.91,NNE,23,2.5,4.0,29,0.00,,,0.02,WUHU216HW,2013-05-11 22:22:00,
2013-05-11 16:27:00,77.4,41.6,29.90,South,180,5.4,5.4,28,0.00,,,0.02,WUHU216HW,2013-05-11 22:27:00,
2013-05-11 16:32:00,76.9,43.2,29.91,ESE,113,3.8,5.4,30,0.00,,,0.02,WUHU216HW,2013-05-11 22:32:00,
2013-05-11 16:37:00,76.9,43.2,29.91,SW,225,1.3,3.8,30,0.00,,,0.02,WUHU216HW,2013-05-11 22:37:00,
2013-05-11 16:42:00,76.7,43.0,29.90,SSW,203,2.2,4.7,30,0.00,,,0.02,WUHU216HW,2013-05-11 22:42:00,
2013-05-11 16:47:00,76.3,41.7,29.90,ESE,113,1.6,4.7,29,0.00,,,0.02,WUHU216HW,2013-05-11 22:47:00,
2013-05-11 16:52:00,76.3,42.8,29.90,SW,225,1.1,6.3,30,0.00,,,0.02,WUHU216HW,2013-05-11 22:52:00,
2013-05-11 16:57:00,76.3,42.8,29.90,ESE,113,2.0,6.3,30,0.00,,,0.02,WUHU216HW,2013-05-11 22:57:00,
2013-05-11 17:02:00,76.5,43.7,29.89,SE,135,3.4,3.4,31,0.00,,,0.02,WUHU216HW,2013-05-11 23:02:00,
2013-05-11 17:07:00,76.1,42.6,29.89,West,270,4.3,4.3,30,0.00,,,0.02,WUHU216HW,2013-05-11 23:07:00,
2013-05-11 17:12:00,76.0,43.2,29.90,SSW,203,2.5,4.3,31,0.00,,,0.02,WUHU216HW,2013-05-11 23:12:00,
2013-05-11 17:17:00,76.0,41.4,29.90,East,90,4.3,4.3,29,0.00,,,0.02,WUHU216HW,2013-05-11 23:17:00,
2013-05-11 17:22:00,76.1,41.6,29.89,NE,45,1.3,4.3,29,0.00,,,0.02,WUHU216HW,2013-05-11 23:22:00,
2013-05-11 17:27:00,76.0,41.4,29.89,ENE,68,4.5,4.5,29,0.00,,,0.02,WUHU216HW,2013-05-11 23:27:00,
2013-05-11 17:32:00,75.8,41.2,29.89,ESE,113,1.8,4.5,29,0.00,,,0.02,WUHU216HW,2013-05-11 23:32:00,
2013-05-11 17:37:00,75.6,41.0,29.89,WSW,248,2.0,6.0,29,0.00,,,0.02,WUHU216HW,2013-05-11 23:37:00,
2013-05-11 17:42:00,75.4,42.0,29.89,ESE,113,0.2,6.0,30,0.00,,,0.02,WUHU216HW,2013-05-11 23:42:00,
2013-05-11 17:47:00,75.4,40.9,29.89,SE,135,4.3,4.7,29,0.00,,,0.02,WUHU216HW,2013-05-11 23:47:00,
2013-05-11 17:52:00,75.1,41.6,29.89,ENE,68,0.9,5.4,30,0.00,,,0.02,WUHU216HW,2013-05-11 23:52:00,
2013-05-11 17:57:00,74.9,39.4,29.89,NNW,338,1.8,5.8,28,0.00,,,0.02,WUHU216HW,2013-05-11 23:57:00,
2013-05-11 18:02:00,74.7,40.2,29.89,ENE,68,0.9,6.0,29,0.00,,,0.02,WUHU216HW,2013-05-12 00:02:00,
2013-05-11 18:07:00,74.7,40.2,29.89,WSW,248,1.1,6.0,29,0.00,,,0.02,WUHU216HW,2013-05-12 00:07:00,
2013-05-11 18:12:00,74.2,40.8,29.89,NW,315,0.7,7.2,30,0.00,,,0.02,WUHU216HW,2013-05-12 00:12:00,
2013-05-11 18:17:00,73.8,39.4,29.90,SSW,203,0.4,7.2,29,0.00,,,0.02,WUHU216HW,2013-05-12 00:17:00,
2013-05-11 18:22:00,73.6,40.3,29.90,SSE,158,2.9,2.9,30,0.00,,,0.02,WUHU216HW,2013-05-12 00:22:00,
2013-05-11 18:27:00,73.4,40.1,29.90,WSW,248,0.9,3.4,30,0.00,,,0.02,WUHU216HW,2013-05-12 00:27:00,
2013-05-11 18:32:00,73.4,39.2,29.90,SE,135,1.3,5.4,29,0.00,,,0.02,WUHU216HW,2013-05-12 00:32:00,
2013-05-11 18:37:00,73.1,39.9,29.89,East,90,0.7,5.4,30,0.00,,,0.02,WUHU216HW,2013-05-12 00:37:00,
2013-05-11 18:42:00,72.7,39.6,29.89,ESE,113,1.1,5.1,30,0.00,,,0.02,WUHU216HW,2013-05-12 00:42:00,
2013-05-11 18:47:00,72.7,38.5,29.89,East,90,1.6,5.1,29,0.00,,,0.02,WUHU216HW,2013-05-12 00:47:00,
2013-05-11 18:52:00,72.5,38.4,29.89,NW,315,1.3,4.5,29,0.00,,,0.02,WUHU216HW,2013-05-12 00:52:00,
2013-05-11 18:57:00,72.4,38.3,29.89,SE,135,0.0,4.5,29,0.00,,,0.02,WUHU216HW,2013-05-12 00:57:00,
2013-05-11 19:02:00,72.4,38.3,29.89,South,180,4.0,4.5,29,0.00,,,0.02,WUHU216HW,2013-05-12 01:02:00,
2013-05-11 19:07:00,72.0,39.0,29.89,SW,225,2.2,4.5,30,0.00,,,0.02,WUHU216HW,2013-05-12 01:07:00,
2013-05-11 19:12:00,72.0,39.0,29.89,SW,225,0.4,3.6,30,0.00,,,0.02,WUHU216HW,2013-05-12 01:12:00,
2013-05-11 19:17:00,71.3,39.9,29.89,ENE,68,0.4,3.6,32,0.00,,,0.02,WUHU216HW,2013-05-12 01:17:00,
2013-05-11 19:22:00,70.7,39.3,29.89,NNE,23,0.4,2.7,32,0.00,,,0.02,WUHU216HW,2013-05-12 01:22:00,
2013-05-11 19:27:00,70.7,39.3,29.89,ENE,68,2.5,2.7,32,0.00,,,0.02,WUHU216HW,2013-05-12 01:27:00,
2013-05-11 19:32:00,70.6,40.0,29.89,SSW,203,0.0,2.5,33,0.00,,,0.02,WUHU216HW,2013-05-12 01:32:00,
2013-05-11 19:37:00,70.0,40.2,29.89,SE,135,1.1,2.0,34,0.00,,,0.02,WUHU216HW,2013-05-12 01:37:00,
2013-05-11 19:42:00,69.5,39.7,29.89,ENE,68,1.1,1.3,34,0.00,,,0.02,WUHU216HW,2013-05-12 01:42:00,
2013-05-11 19:47:00,68.8,41.3,29.90,NW,315,0.4,1.3,37,0.00,,,0.02,WUHU216HW,2013-05-12 01:47:00,
2013-05-11 19:52:00,68.6,39.6,29.90,ESE,113,4.0,4.0,35,0.00,,,0.02,WUHU216HW,2013-05-12 01:52:00,
2013-05-11 19:57:00,68.6,39.6,29.89,SSE,158,0.9,4.0,35,0.00,,,0.02,WUHU216HW,2013-05-12 01:57:00,
2013-05-11 20:02:00,68.4,41.0,29.89,NNW,338,0.9,2.0,37,0.00,,,0.02,WUHU216HW,2013-05-12 02:02:00,
2013-05-11 20:07:00,68.0,39.9,29.90,SSW,203,0.4,2.0,36,0.00,,,0.02,WUHU216HW,2013-05-12 02:07:00,
2013-05-11 20:12:00,67.7,40.3,29.90,SW,225,0.0,1.8,37,0.00,,,0.02,WUHU216HW,2013-05-12 02:12:00,
2013-05-11 20:17:00,67.1,39.9,29.90,WSW,248,0.0,1.8,37,0.00,,,0.02,WUHU216HW,2013-05-12 02:17:00,
2013-05-11 20:22:00,67.0,39.7,29.90,WSW,248,0.0,1.1,37,0.00,,,0.02,WUHU216HW,2013-05-12 02:22:00,
2013-05-11 20:27:00,66.4,40.0,29.90,WSW,248,0.0,1.3,38,0.00,,,0.02,WUHU216HW,2013-05-12 02:27:00,
2013-05-11 20:32:00,66.1,38.9,29.90,SW,225,0.0,2.5,37,0.00,,,0.02,WUHU216HW,2013-05-12 02:32:00,
2013-05-11 20:37:00,65.9,39.4,29.90,SW,225,0.0,2.5,38,0.00,,,0.02,WUHU216HW,2013-05-12 02:37:00,
2013-05-11 20:42:00,65.2,38.8,29.90,WSW,248,0.0,0.0,38,0.00,,,0.02,WUHU216HW,2013-05-12 02:42:00,
2013-05-11 20:47:00,64.8,39.3,29.90,WSW,248,0.0,0.0,39,0.00,,,0.02,WUHU216HW,2013-05-12 02:47:00,
2013-05-11 20:52:00,64.4,38.9,29.90,WSW,248,0.0,0.4,39,0.00,,,0.02,WUHU216HW,2013-05-12 02:52:00,
2013-05-11 20:57:00,64.1,39.2,29.90,WSW,248,0.0,0.4,40,0.00,,,0.02,WUHU216HW,2013-05-12 02:57:00,
2013-05-11 21:02:00,63.7,39.0,29.90,WSW,248,0.0,0.7,40,0.00,,,0.02,WUHU216HW,2013-05-12 03:02:00,
2013-05-11 21:07:00,63.5,39.3,29.90,SW,225,0.0,1.3,41,0.00,,,0.02,WUHU216HW,2013-05-12 03:07:00,
2013-05-11 21:12:00,63.2,39.1,29.90,WSW,248,0.0,1.3,41,0.00,,,0.02,WUHU216HW,2013-05-12 03:12:00,
2013-05-11 21:17:00,62.6,39.7,29.90,West,270,0.9,0.9,43,0.00,,,0.02,WUHU216HW,2013-05-12 03:17:00,
2013-05-11 21:22:00,62.3,39.4,29.90,West,270,0.0,1.1,43,0.00,,,0.02,WUHU216HW,2013-05-12 03:22:00,
2013-05-11 21:27:00,61.9,39.6,29.90,WSW,248,0.0,1.1,44,0.00,,,0.02,WUHU216HW,2013-05-12 03:27:00,
2013-05-11 21:32:00,61.2,39.6,29.90,WSW,248,0.9,0.9,45,0.00,,,0.02,WUHU216HW,2013-05-12 03:32:00,
2013-05-11 21:37:00,60.7,40.2,29.90,WSW,248,0.2,1.1,47,0.00,,,0.02,WUHU216HW,2013-05-12 03:37:00,
2013-05-11 21:42:00,60.1,40.9,29.91,SSW,203,0.7,1.3,49,0.00,,,0.02,WUHU216HW,2013-05-12 03:42:00,
2013-05-11 21:47:00,59.8,41.1,29.91,SSW,203,0.0,1.3,50,0.00,,,0.02,WUHU216HW,2013-05-12 03:47:00,
2013-05-11 21:52:00,59.4,41.3,29.91,SSW,203,0.2,2.0,51,0.00,,,0.02,WUHU216HW,2013-05-12 03:52:00,
2013-05-11 21:57:00,59.0,41.4,29.91,SSW,203,0.0,2.0,52,0.00,,,0.02,WUHU216HW,2013-05-12 03:57:00,
2013-05-11 22:01:00,58.7,41.1,29.91,SSW,203,0.7,1.1,52,0.00,,,0.02,WUHU216HW,2013-05-12 04:01:00,
2013-05-11 22:06:00,58.3,41.2,29.91,SSW,203,0.0,1.3,53,0.00,,,0.02,WUHU216HW,2013-05-12 04:06:00,
2013-05-11 22:11:00,58.1,41.6,29.91,SSW,203,0.4,1.3,54,0.00,,,0.02,WUHU216HW,2013-05-12 04:11:00,
2013-05-11 22:16:00,57.8,41.7,29.91,SW,225,0.9,0.9,55,0.00,,,0.02,WUHU216HW,2013-05-12 04:16:00,
2013-05-11 22:21:00,57.6,41.6,29.91,SSW,203,0.2,0.9,55,0.00,,,0.02,WUHU216HW,2013-05-12 04:21:00,
2013-05-11 22:26:00,57.2,41.7,29.91,SSW,203,1.1,1.1,56,0.00,,,0.02,WUHU216HW,2013-05-12 04:26:00,
2013-05-11 22:31:00,57.1,41.0,29.91,WSW,248,0.4,1.1,55,0.00,,,0.02,WUHU216HW,2013-05-12 04:31:00,
2013-05-11 22:36:00,57.1,40.6,29.91,West,270,1.8,1.8,54,0.00,,,0.02,WUHU216HW,2013-05-12 04:36:00,
2013-05-11 22:41:00,57.4,41.0,29.91,West,270,0.4,1.8,54,0.00,,,0.02,WUHU216HW,2013-05-12 04:41:00,
2013-05-11 22:46:00,57.6,41.0,29.91,West,270,0.4,1.3,54,0.00,,,0.02,WUHU216HW,2013-05-12 04:46:00,
2013-05-11 22:51:00,57.8,41.2,29.91,WSW,248,0.2,0.9,54,0.00,,,0.02,WUHU216HW,2013-05-12 04:51:00,
2013-05-11 22:56:00,58.0,41.4,29.91,West,270,0.7,0.9,54,0.00,,,0.02,WUHU216HW,2013-05-12 04:56:00,
2013-05-11 23:01:00,58.0,41.4,29.91,West,270,0.7,0.9,54,0.00,,,0.02,WUHU216HW,2013-05-12 05:01:00,
2013-05-11 23:06:00,58.0,41.9,29.90,WSW,248,0.0,0.7,55,0.00,,,0.02,WUHU216HW,2013-05-12 05:06:00,
2013-05-11 23:11:00,57.8,41.2,29.90,WSW,248,0.9,0.9,54,0.00,,,0.02,WUHU216HW,2013-05-12 05:11:00,
2013-05-11 23:16:00,57.8,41.7,29.90,West,270,0.7,0.9,55,0.00,,,0.02,WUHU216HW,2013-05-12 05:16:00,
2013-05-11 23:21:00,57.8,41.7,29.90,West,270,0.4,0.9,55,0.00,,,0.02,WUHU216HW,2013-05-12 05:21:00,
2013-05-11 23:26:00,57.6,41.0,29.91,WSW,248,1.1,1.1,54,0.00,,,0.02,WUHU216HW,2013-05-12 05:26:00,
2013-05-11 23:31:00,57.2,40.8,29.90,WSW,248,0.9,1.1,54,0.00,,,0.02,WUHU216HW,2013-05-12 05:31:00,
2013-05-11 23:36:00,56.9,41.3,29.91,WSW,248,0.4,0.9,56,0.00,,,0.02,WUHU216HW,2013-05-12 05:36:00,
2013-05-11 23:41:00,56.7,41.1,29.91,SW,225,0.4,0.4,56,0.00,,,0.02,WUHU216HW,2013-05-12 05:41:00,
2013-05-11 23:46:00,56.5,41.4,29.91,WSW,248,0.7,1.1,57,0.00,,,0.02,WUHU216HW,2013-05-12 05:46:00,
2013-05-11 23:51:00,56.3,41.8,29.91,SW,225,0.2,1.1,58,0.00,,,0.02,WUHU216HW,2013-05-12 05:51:00,
2013-05-11 23:56:00,56.0,41.9,29.91,SW,225,0.4,0.7,59,0.00,,,0.02,WUHU216HW,2013-05-12 05:56:00,